Wind_Speed
16 14 12 12 11 9 8 8 7 7 7 7 8 8 8 7 8 8 7 7 9 11 14 16 19 23 25 25 25 23 22 21 20 21 24 26 26 25 26 26 25 25 24 23 22 20 20 19 18 17 17 16 16 15 14 12 11 10 8 7 7 8 10 11 11 12 12 11 11 10 10 10 10 10 11 11 11 12 12 13 15 16 16 15 14
18 15 13 13 12 10 9 9 9 8 8 9 10 10 9 7 7 8 8 7 6 8 11 13 15 19 24 27 26 24 23 22 21 22 24 25 25 25 27 28 27 26 25 23 22 21 21 20 19 18 18 17 17 16 15 14 12 11 10 9 9 9 10 11 12 13 13 12 11 10 10 10 10 10 11 11 11 11 11 12 13 14 15 15 15
18 16 16 15 12 11 11 11 11 10 11 11 11 10 9 9 8 8 10 10 9 8 9 11 14 17 20 25 27 25 24 23 22 23 24 25 25 25 27 29 28 27 26 25 24 23 22 21 20 19 19 18 18 17 16 15 14 13 12 11 11 11 11 12 13 13 13 12 11 10 10 10 11 11 11 11 11 10 11 11 11 12 13 14 14
20 18 19 17 13 13 12 12 12 12 13 14 14 12 11 12 11 10 10 11 12 11 11 11 12 17 20 22 26 25 24 24 24 24 26 27 27 26 26 28 29 28 27 26 25 24 24 23 21 20 20 19 19 18 18 17 16 15 14 13 12 12 12 13 14 14 13 12 11 11 10 11 11 11 11 11 11 10 10 10 10 11 11 12 13
20 20 20 18 16 15 13 11 12 13 14 16 17 15 13 13 10 10 10 10 12 12 12 12 12 15 19 22 24 26 27 26 25 25 27 29 29 28 27 27 28 30 29 28 27 26 25 24 23 22 21 21 20 20 20 19 18 17 16 16 14 14 14 14 14 14 14 12 12 12 11 12 12 12 12 12 11 11 11 10 10 10 10 11 11
19 20 21 19 18 17 15 11 10 13 14 15 17 16 15 13 11 10 10 9 10 10 10 12 12 12 15 20 23 26 29 29 27 26 27 29 29 29 28 27 26 29 30 29 28 27 26 25 24 23 23 22 22 22 22 21 20 19 18 18 17 16 16 15 15 15 15 14 14 14 14 13 13 13 13 13 12 12 12 11 11 10 10 10 10
20 20 21 20 19 18 16 13 11 12 14 14 16 17 16 14 12 10 9 8 8 8 10 11 9 10 12 17 21 24 27 29 29 28 28 28 28 29 29 28 26 26 29 29 30 30 28 27 26 25 24 24 24 23 23 23 22 21 20 20 20 19 18 18 17 17 17 16 16 16 16 15 15 14 14 14 14 14 13 13 12 11 11 11 11
22 22 22 21 20 19 16 16 14 12 14 15 17 17 16 15 14 13 12 10 9 9 10 10 9 9 10 12 16 20 23 27 29 30 29 27 28 31 30 30 29 27 28 28 29 30 31 30 28 28 27 26 26 25 25 25 24 24 23 23 22 22 21 20 19 19 19 18 18 17 17 17 16 16 15 15 16 15 15 15 14 13 13 12 12
23 23 23 23 22 20 17 18 16 13 15 16 16 15 16 17 17 16 16 15 14 12 11 10 10 10 10 10 12 15 19 24 27 29 29 27 30 32 31 30 31 31 30 30 29 29 30 32 31 29 29 28 28 27 27 27 27 26 26 25 25 24 24 23 22 21 20 20 20 19 19 18 18 18 17 17 17 17 17 17 16 16 15 14 13
22 23 24 24 24 21 20 19 16 13 13 15 15 15 15 17 17 18 18 18 17 15 13 12 11 11 12 12 12 13 16 18 22 27 28 29 30 31 31 30 31 32 31 31 31 29 29 32 33 32 31 30 30 29 29 29 29 29 28 27 27 26 26 25 24 23 22 22 22 22 21 20 20 20 19 19 19 18 18 18 18 18 17 16 15
22 22 23 24 24 21 20 19 16 14 14 15 16 15 15 17 18 19 19 19 18 18 17 15 14 14 15 16 14 12 14 15 18 22 26 28 28 29 30 28 29 31 31 31 32 31 31 31 32 33 33 32 32 31 31 31 31 31 30 29 28 28 27 26 25 24 23 22 22 23 23 22 22 21 21 21 21 20 19 20 20 20 19 18 17
21 21 22 23 23 22 20 18 16 15 15 16 16 14 15 17 18 20 21 20 20 20 20 19 17 16 18 21 18 15 15 16 16 18 22 26 26 27 27 27 28 29 30 31 31 32 33 33 33 33 33 33 33 33 33 32 32 32 31 30 29 28 28 26 25 23 22 22 22 23 24 24 23 23 23 22 22 21 21 21 21 21 20 19 18
19 19 20 22 23 22 22 21 19 17 16 15 14 14 15 16 17 18 18 19 19 19 21 21 18 17 18 21 21 18 16 16 15 16 20 24 26 26 26 27 28 28 29 29 30 32 32 33 34 33 33 33 33 33 33 33 32 32 31 30 29 28 27 26 25 24 23 23 23 23 24 25 24 24 24 23 23 23 23 23 22 22 22 21 20
16 17 18 20 21 20 21 22 21 19 19 18 18 18 17 16 17 17 16 17 19 19 21 21 19 19 19 18 18 19 17 18 18 17 21 24 24 26 27 27 27 27 28 27 28 30 31 32 32 32 33 33 33 33 32 32 32 31 30 30 29 29 28 27 26 26 26 25 25 25 25 26 26 26 26 25 25 25 25 24 23 23 23 22 21
13 14 16 17 18 19 20 22 21 20 22 23 24 24 22 20 20 19 18 18 18 19 20 20 18 17 16 12 10 14 15 18 19 19 21 22 22 24 27 28 28 27 27 26 27 27 28 29 29 30 31 31 32 33 33 33 32 30 30 30 30 30 30 29 29 29 29 28 28 28 27 27 28 28 28 27 27 27 26 25 23 23 24 23 22
11 12 13 14 15 16 17 19 20 20 22 24 25 26 26 25 24 22 21 20 20 20 19 17 14 11 12 9 5 7 10 14 16 17 19 19 20 23 26 28 29 30 29 27 25 24 25 25 25 26 28 28 29 32 33 34 34 33 32 32 32 32 32 32 32 32 31 31 31 30 29 29 29 28 28 27 27 27 26 25 23 23 24 24 24
8 9 10 11 11 12 13 15 16 17 18 20 22 23 24 25 25 24 23 22 22 22 20 17 14 12 12 11 8 7 8 10 11 14 19 20 21 23 24 26 28 29 28 28 25 24 24 24 23 24 24 23 24 26 28 30 32 32 31 31 31 31 31 32 32 31 31 31 31 31 30 29 29 29 27 26 26 25 25 25 24 24 25 25 25
6 7 8 9 9 9 10 11 11 12 14 16 18 20 21 23 25 25 25 24 23 22 20 18 16 14 13 13 12 12 12 10 9 11 15 18 20 22 21 21 26 27 26 25 24 25 25 24 23 23 23 23 22 24 24 25 27 27 28 29 29 29 29 30 30 30 30 30 30 31 31 30 29 29 27 26 25 24 24 24 25 25 25 26 27
5 6 7 7 8 8 8 9 9 9 10 11 13 15 17 19 21 23 23 23 22 20 18 16 16 15 14 16 15 14 14 12 10 12 14 15 16 18 18 17 21 25 25 22 22 23 23 23 23 23 24 24 24 24 24 24 24 25 25 26 26 27 27 28 28 28 29 29 28 29 31 30 29 28 27 26 25 24 23 24 25 25 26 27 27
6 6 7 7 7 7 7 8 7 7 7 7 9 10 11 12 14 15 16 17 17 16 15 14 15 15 14 15 14 14 15 15 15 15 15 16 15 14 16 16 17 21 23 22 22 23 23 23 24 23 24 25 25 25 25 24 24 24 23 23 23 24 25 26 27 26 26 27 26 25 26 28 27 26 26 25 25 24 24 24 24 25 26 26 28
6 7 7 7 7 7 7 7 6 6 6 5 6 7 8 8 8 8 8 9 10 12 12 14 15 14 13 13 13 13 13 14 16 16 16 16 15 15 14 14 15 18 21 22 22 23 23 24 24 23 24 25 25 24 24 24 24 24 23 22 23 24 25 25 25 25 24 25 25 24 23 25 26 25 24 24 23 24 24 24 24 24 25 25 27
4 5 7 7 8 8 8 7 6 6 5 5 5 6 7 7 7 7 6 5 5 6 8 10 11 12 12 12 12 13 13 13 14 15 15 16 16 16 15 14 14 16 19 22 24 24 24 23 23 24 26 26 26 26 25 24 25 25 24 23 23 24 25 25 24 24 24 24 25 24 23 24 24 23 22 21 22 23 23 23 23 24 24 24 25
3 3 4 6 7 8 8 8 8 7 6 6 5 6 6 6 6 6 5 5 4 4 4 5 6 7 7 8 9 10 11 12 13 14 15 16 16 18 17 17 17 18 18 19 21 21 20 21 22 23 25 27 28 28 28 28 28 28 27 26 25 25 25 25 25 24 25 25 26 25 25 24 22 19 18 19 20 21 22 22 22 22 22 22 23
5 4 3 3 4 6 7 7 8 7 7 7 6 6 7 7 6 6 5 5 4 4 4 4 5 5 5 6 7 8 8 9 10 11 12 13 13 15 17 19 19 19 19 19 19 18 19 23 24 24 26 27 28 30 31 31 32 32 30 29 28 26 26 27 27 27 27 28 28 27 26 26 25 23 21 20 19 19 20 21 21 20 21 21 22
7 6 6 4 3 2 4 5 6 6 6 6 6 6 7 7 7 7 7 7 7 7 7 7 7 7 7 7 7 8 8 9 9 9 10 10 11 12 12 14 15 14 14 16 18 19 21 26 27 27 27 27 26 28 30 31 33 35 34 33 31 29 29 29 29 29 29 30 30 30 29 28 27 27 25 22 20 19 19 20 21 21 21 21 21
7 7 7 7 6 4 2 2 3 4 4 5 5 5 5 6 6 7 8 8 9 10 10 11 11 11 11 11 11 11 11 11 11 11 12 12 12 12 12 12 13 12 11 12 14 16 18 20 23 25 26 26 25 25 27 28 29 33 34 34 33 32 32 32 32 31 31 32 32 32 32 31 29 29 28 26 24 21 20 21 22 23 23 22 22
5 6 7 7 7 6 5 3 3 3 3 3 4 4 4 4 4 5 6 7 8 10 11 12 13 13 13 14 14 14 14 15 15 15 15 15 15 15 15 15 14 14 14 13 14 14 15 15 18 20 22 24 25 26 27 27 28 30 31 32 33 33 34 34 34 33 33 33 34 34 34 33 31 30 29 29 27 24 22 23 24 24 25 24 24
3 5 6 7 7 7 6 5 4 4 4 4 5 6 6 6 6 6 6 6 7 8 9 10 11 12 12 13 14 15 15 16 16 16 17 17 17 17 17 17 17 16 16 16 16 17 17 17 17 18 20 22 23 25 25 26 28 29 29 29 30 31 34 36 36 36 35 35 36 36 36 35 34 33 31 31 31 29 26 25 25 25 25 25 25
4 5 6 6 6 7 7 6 5 5 5 5 6 7 7 7 7 7 7 7 7 7 8 8 9 10 10 11 12 13 14 15 15 15 16 16 16 16 16 16 16 16 16 16 16 17 19 20 19 20 21 20 19 21 22 23 27 27 26 26 26 27 30 33 35 36 38 38 39 38 38 38 37 36 35 34 34 33 31 28 27 26 25 24 25
5 6 7 7 7 7 6 6 6 6 6 6 6 6 6 7 7 7 8 8 9 9 9 10 10 10 11 11 11 12 12 13 14 14 14 15 15 15 14 14 14 14 15 15 15 15 17 19 20 21 22 21 20 21 21 23 25 25 24 26 26 27 28 29 30 32 34 36 38 40 40 41 40 40 39 39 38 37 35 33 31 30 28 26 26
7 7 8 8 8 8 7 6 5 6 6 6 6 7 7 7 7 8 8 9 9 9 10 10 11 11 11 12 12 13 13 13 13 13 14 14 14 14 14 14 14 14 14 15 15 15 16 18 19 20 21 21 22 23 23 25 27 26 25 25 27 29 29 28 29 30 30 32 33 36 38 41 42 42 43 43 42 42 40 38 37 34 32 30 29
12 10 9 10 10 9 8 7 6 6 6 6 6 6 7 8 8 8 9 9 9 10 10 10 11 12 12 12 13 13 14 14 14 14 14 15 15 15 15 15 15 14 14 15 17 17 16 18 18 19 20 21 21 23 24 26 27 27 26 27 28 30 30 30 31 30 29 30 30 31 33 36 39 42 44 44 45 45 43 42 41 39 37 35 33
17 15 14 13 13 12 10 9 9 8 8 8 7 7 7 8 9 10 10 10 10 11 11 12 12 13 14 14 14 15 15 15 16 16 16 16 17 17 17 16 16 16 15 15 16 17 17 17 18 18 19 20 21 22 24 25 25 25 26 26 28 29 30 31 32 31 30 30 30 29 29 31 34 37 40 43 45 46 46 46 45 44 42 40 38
22 21 20 18 17 16 14 12 12 12 12 12 11 10 10 10 12 13 13 13 12 12 12 13 14 15 15 16 16 17 17 18 18 18 19 19 19 19 19 19 18 18 17 17 17 18 18 18 19 19 19 19 20 22 24 24 25 25 26 26 27 27 28 29 30 31 32 31 30 30 29 29 30 33 36 38 41 44 45 47 48 47 46 45 43
25 25 25 23 22 21 18 16 15 15 16 16 16 15 15 15 15 16 17 16 16 15 15 16 16 16 17 17 17 18 19 20 20 21 21 21 22 22 22 22 21 20 20 20 20 21 21 21 21 21 21 20 21 22 24 24 24 25 26 27 28 28 28 29 29 31 33 32 31 31 31 30 31 32 34 35 36 38 40 42 44 45 46 46 45
27 28 29 28 27 26 24 21 20 20 20 19 19 19 19 19 19 19 19 19 19 19 19 19 19 19 19 19 19 19 20 21 22 23 24 24 24 25 25 25 25 25 23 23 23 24 24 24 22 23 23 22 22 22 23 24 24 25 25 26 28 29 29 30 29 31 33 32 31 31 32 32 33 33 34 36 36 35 35 37 39 40 41 42 42
28 30 32 33 32 31 28 27 25 24 23 23 22 22 22 23 24 24 23 23 22 22 22 22 22 23 23 23 22 22 22 23 23 24 25 26 26 27 28 28 28 28 27 26 26 26 27 26 25 24 24 23 23 23 24 24 25 25 26 26 28 29 30 31 31 32 33 33 32 32 32 32 33 34 34 35 36 36 35 35 36 36 37 38 39
30 32 34 36 36 35 33 31 30 27 26 26 26 25 25 27 28 28 28 27 27 27 27 27 27 27 27 27 26 25 25 25 25 26 27 27 28 28 29 30 30 31 30 29 29 29 29 29 29 28 26 25 25 24 24 25 26 26 27 27 28 29 30 31 33 34 34 34 34 34 34 33 33 33 33 34 34 35 35 34 34 35 35 36 37
34 33 34 36 38 37 36 35 32 30 29 29 29 29 29 30 30 31 32 32 32 32 32 33 33 34 33 32 31 30 29 28 27 28 28 29 29 30 30 31 31 32 32 32 31 31 31 31 31 31 31 30 28 27 26 26 27 27 28 29 29 30 31 32 33 34 35 36 37 36 35 35 35 34 33 33 33 33 34 34 34 34 34 35 36
37 35 36 38 38 39 40 38 36 34 34 34 33 33 33 33 34 35 35 35 36 37 37 37 37 37 37 36 35 35 33 31 30 29 29 30 31 31 32 32 33 33 33 33 34 33 33 33 33 33 33 33 32 31 30 30 30 29 29 30 31 31 32 33 33 34 35 36 38 38 38 37 37 36 34 33 33 34 33 33 33 33 33 34 35
38 39 40 41 41 41 42 41 39 38 39 38 37 36 36 36 35 36 36 36 38 38 39 39 39 39 39 38 37 37 36 35 33 32 31 31 32 33 33 34 34 35 35 35 35 35 35 35 35 34 35 35 34 33 33 34 34 33 32 32 32 32 33 34 34 34 35 36 37 39 41 40 39 39 37 36 35 35 34 34 33 33 33 34 35
34 39 43 45 45 45 43 40 40 41 42 42 40 38 37 36 35 35 36 37 37 39 40 40 40 41 41 41 39 38 37 37 36 35 34 33 34 34 34 35 36 36 36 36 36 37 37 37 37 37 37 37 36 35 34 34 35 36 36 35 34 33 33 35 35 35 35 36 38 39 40 41 42 41 39 38 39 37 36 36 35 34 33 33 34
34 37 40 44 49 48 43 40 43 45 44 44 44 40 36 34 34 35 36 37 38 40 41 41 41 43 43 42 41 40 39 38 37 37 37 36 36 35 36 36 37 37 38 38 38 38 39 40 40 40 40 40 40 39 38 36 35 36 36 37 36 35 35 35 36 36 36 37 38 38 39 40 41 42 41 40 41 41 39 37 36 36 35 34 34
35 35 37 40 47 49 45 44 47 48 47 47 45 41 36 34 35 37 37 38 39 40 40 40 43 45 43 41 40 40 40 39 38 39 39 39 38 38 37 37 38 38 39 39 40 40 41 42 42 42 42 42 43 43 42 41 38 37 37 37 37 37 37 38 37 37 37 38 38 37 37 38 40 41 41 41 42 44 43 39 37 38 38 37 35
37 37 37 38 41 45 44 44 47 48 48 48 43 38 36 36 39 40 38 37 37 38 39 41 44 44 42 40 40 40 41 41 39 39 38 39 40 41 40 39 39 39 40 40 41 42 42 43 44 44 43 43 44 44 44 44 43 41 40 39 38 38 39 40 40 39 39 40 40 37 36 38 38 40 41 41 43 46 45 41 39 40 41 40 39
38 37 38 37 37 38 36 35 39 43 45 44 41 39 39 40 40 40 37 35 36 38 40 41 43 42 40 38 39 40 41 41 41 40 39 39 40 42 42 42 42 42 42 42 42 43 43 44 45 45 45 45 45 45 45 45 45 45 44 42 41 41 41 41 42 42 41 42 42 40 39 38 37 40 42 41 43 46 46 42 40 41 43 44 42
39 37 37 37 36 34 31 30 33 38 40 41 41 42 42 41 39 37 35 35 36 39 41 41 40 39 38 37 38 39 41 41 41 40 40 40 41 43 43 44 44 44 44 45 45 45 45 46 46 46 46 46 45 45 45 45 46 46 46 46 45 44 45 44 44 44 44 44 44 44 44 41 38 40 42 42 45 46 44 42 42 42 45 47 46
39 37 37 37 35 33 30 29 32 35 38 39 41 42 42 41 38 35 35 36 38 39 41 40 38 37 37 38 38 39 40 41 41 41 41 41 43 44 45 45 46 46 46 46 47 46 46 47 48 48 48 47 46 46 45 45 46 47 47 48 48 48 48 48 47 47 47 47 46 46 47 46 43 42 42 43 46 46 42 42 43 42 44 47 49
39 38 37 36 35 32 30 30 33 37 39 40 41 43 43 41 38 36 37 38 38 38 39 38 37 37 38 38 38 39 41 42 42 42 42 42 44 45 46 46 47 47 47 47 47 47 47 48 48 48 48 48 48 48 47 47 47 48 49 49 49 50 50 51 51 50 50 49 49 49 50 50 49 46 44 44 47 47 43 42 43 42 43 46 47
38 37 36 35 34 32 31 32 35 38 39 40 43 44 43 40 38 38 38 37 36 36 36 36 37 38 39 39 39 40 40 42 43 43 43 43 45 46 47 47 47 47 47 47 48 49 49 50 50 49 48 48 47 47 48 48 48 49 51 51 50 51 52 53 54 54 53 52 52 52 52 52 51 49 47 46 48 48 45 43 42 42 44 45 44
36 36 35 34 32 32 34 35 36 38 40 43 45 44 40 38 38 37 35 35 35 35 36 37 38 39 40 40 41 42 42 42 42 43 43 45 46 48 48 49 49 48 48 48 49 50 50 51 51 50 49 48 47 47 47 48 49 49 50 51 52 54 54 55 56 57 56 55 54 54 54 53 51 50 49 48 48 49 49 46 42 41 43 44 44
Wind_Direction
249 247 241 239 235 230 236 240 229 222 220 214 214 215 217 209 194 197 200 203 201 197 202 204 209 216 217 219 220 218 218 215 213 212 212 212 211 213 214 215 218 219 220 220 220 222 223 225 225 225 224 227 231 233 234 235 240 246 255 267 277 288 297 304 310 314 319 323 327 331 335 341 346 352 358 1 4 8 12 13 11 13 16 20 23
248 246 242 237 232 232 235 237 235 231 226 215 208 212 221 224 218 216 215 220 219 204 207 207 211 217 216 219 222 221 220 220 219 216 214 214 212 214 215 215 217 220 221 221 221 222 223 224 223 222 221 223 228 231 233 235 240 246 253 263 273 281 291 300 306 310 315 321 325 329 332 334 337 340 345 351 355 357 2 6 6 6 8 13 16
249 247 242 239 234 234 239 245 245 240 236 226 216 218 227 235 238 235 230 232 237 229 219 216 213 220 222 219 221 224 223 222 223 220 218 216 216 218 217 215 217 219 221 223 223 223 223 224 223 221 221 222 226 229 232 235 240 245 250 260 268 276 286 294 301 308 312 319 324 329 332 333 333 333 334 338 343 347 350 354 358 360 0 4 9
248 249 247 246 242 239 244 251 251 247 241 236 234 235 239 246 249 251 243 231 235 236 233 234 223 221 226 223 219 221 225 224 221 221 221 218 217 220 220 218 218 219 221 223 224 224 223 224 224 223 222 223 225 229 232 235 239 244 250 257 264 271 279 288 296 303 308 312 317 324 330 332 332 330 329 329 330 335 338 341 345 350 353 355 359
248 251 252 250 247 244 247 254 257 254 245 239 241 243 245 250 250 246 240 230 233 234 232 242 243 231 226 225 219 217 222 224 221 220 223 221 217 218 221 220 219 219 221 222 223 225 225 224 224 225 225 226 227 230 233 237 241 245 251 256 260 265 272 280 288 295 300 303 306 313 321 326 328 327 326 324 322 324 326 329 332 337 342 346 350
250 252 253 253 252 249 247 258 264 255 247 243 245 246 242 241 237 233 232 229 233 238 236 238 247 247 234 227 222 219 220 222 220 218 223 224 219 218 221 221 221 222 222 222 223 224 225 226 226 227 227 229 231 232 235 238 243 246 250 255 258 261 266 272 279 286 290 293 296 300 307 313 318 321 322 321 319 318 317 318 320 323 329 334 339
252 252 253 252 255 252 248 257 261 254 252 252 252 246 237 236 239 241 241 239 240 242 239 234 236 247 244 235 229 224 222 223 221 218 222 224 221 220 222 221 220 223 224 224 224 224 224 226 227 229 229 231 233 235 239 241 244 247 249 253 257 260 264 267 271 276 282 286 289 292 295 299 304 309 313 316 317 315 312 311 310 313 316 321 328
253 253 254 253 255 254 253 256 257 257 260 259 255 249 244 249 253 252 250 249 249 248 240 237 233 230 237 242 237 227 223 226 224 222 224 224 222 222 222 222 220 222 225 225 226 227 225 226 227 229 231 233 234 236 240 244 246 249 251 253 257 260 264 266 267 269 274 279 283 286 288 291 294 299 303 307 310 312 311 307 305 305 307 310 315
253 255 254 253 254 255 257 260 258 254 258 259 258 257 255 256 258 255 255 253 251 250 245 241 236 231 231 237 240 234 228 227 225 225 226 224 225 225 224 224 222 222 225 224 225 228 229 228 227 229 231 233 236 238 240 244 247 251 253 256 258 261 264 267 268 268 269 272 277 280 282 286 290 293 296 299 302 306 307 306 303 300 300 302 305
251 254 255 252 252 256 261 262 256 244 248 258 263 265 260 257 259 259 259 260 258 258 253 245 238 235 235 234 239 242 239 233 227 225 226 226 228 227 226 227 226 226 228 227 226 229 233 231 229 229 232 235 237 240 242 245 248 251 254 257 260 263 266 268 269 270 268 267 270 273 277 281 285 288 291 294 295 299 302 302 300 298 296 296 298
251 254 256 254 253 256 259 261 258 249 247 253 259 262 257 253 255 259 263 266 270 273 268 260 251 245 239 238 244 247 240 235 231 228 227 228 230 229 228 229 229 230 231 231 229 230 234 236 234 232 233 237 239 241 244 247 250 254 256 259 262 265 268 270 270 270 269 265 264 268 272 275 279 283 286 290 291 293 296 297 296 295 293 293 293
254 255 255 256 255 255 257 258 259 259 255 253 257 259 255 252 254 259 265 270 276 279 278 274 268 258 245 240 242 242 235 226 226 231 231 229 228 229 231 231 232 234 234 234 233 233 235 239 240 239 238 241 243 244 246 249 252 255 258 261 263 265 267 269 270 269 269 267 264 265 267 270 273 278 281 285 286 287 291 293 292 291 290 289 289
255 254 253 254 256 257 259 260 258 258 257 256 258 256 253 255 259 262 266 274 280 282 282 278 271 264 257 251 245 239 231 219 219 230 231 229 227 226 230 232 232 236 238 237 236 236 238 240 243 244 244 245 247 248 249 250 252 254 257 259 261 263 264 266 267 269 268 268 267 266 266 267 269 273 276 279 281 282 286 288 287 285 285 285 285
254 253 252 252 255 257 261 264 263 260 258 256 254 254 259 263 265 267 270 278 285 286 283 276 270 264 265 269 254 238 225 214 216 226 228 229 227 224 227 231 232 235 239 240 240 240 241 242 243 245 246 247 248 250 251 251 251 253 256 258 261 263 264 265 267 268 269 268 268 267 267 268 269 271 273 275 277 279 282 283 282 280 280 280 281
254 253 252 251 252 255 258 262 263 262 261 259 256 257 264 267 266 270 275 282 287 286 280 274 273 264 260 272 260 237 226 218 217 219 223 226 226 228 230 230 232 234 237 238 240 242 243 243 244 245 247 248 248 249 252 253 253 253 255 258 261 264 266 268 269 270 270 270 269 268 268 269 270 272 274 276 276 277 278 279 278 275 274 276 276
262 260 258 256 254 254 255 259 262 264 265 265 263 262 263 263 266 270 275 278 280 282 279 271 268 262 257 270 271 244 236 233 227 219 218 217 219 228 229 228 231 233 235 236 238 241 241 242 245 246 248 249 251 250 250 252 255 256 257 258 260 263 265 268 270 272 273 273 272 271 271 271 272 274 276 277 277 276 276 275 273 270 269 270 271
272 271 269 267 264 260 258 260 262 265 266 267 267 266 264 262 263 267 272 274 274 277 278 272 267 266 267 269 268 263 256 251 244 232 227 223 221 224 223 224 227 227 229 231 233 235 234 236 240 244 246 248 252 254 252 251 253 256 258 258 259 261 264 266 268 270 272 274 275 275 274 274 274 275 276 277 277 276 274 272 269 265 263 264 267
287 284 282 279 276 273 269 268 269 269 269 268 268 266 264 263 263 267 270 271 272 271 271 273 270 264 264 265 265 270 271 269 269 262 253 245 235 224 217 222 223 219 220 223 227 229 228 229 233 236 239 242 245 249 252 253 253 255 258 260 261 262 264 266 267 269 270 272 275 277 277 276 276 277 276 276 276 275 273 270 267 263 260 260 262
294 294 294 292 288 285 281 281 279 278 277 274 272 269 266 266 266 267 268 268 268 264 261 264 262 258 257 259 262 266 269 267 268 275 276 275 261 235 220 218 217 216 218 218 223 228 225 224 226 231 235 237 240 243 247 251 253 255 257 260 263 265 267 268 268 269 270 272 273 276 279 279 278 278 278 277 276 274 272 270 267 264 260 258 259
280 285 291 294 293 292 288 288 288 287 287 282 280 279 275 273 272 271 270 269 265 258 252 247 248 251 251 251 255 259 263 263 258 258 263 273 283 267 239 222 214 218 221 221 223 226 225 225 228 235 239 239 240 243 244 245 248 251 254 257 261 264 266 268 270 271 272 273 273 274 277 280 281 280 279 279 277 274 271 269 267 264 261 258 258
269 271 275 278 282 284 282 283 286 287 289 286 283 287 289 291 292 290 283 276 269 260 253 248 247 249 250 249 250 251 257 260 254 248 248 254 270 284 274 250 233 225 223 224 228 229 229 231 234 240 244 242 242 245 246 245 246 248 251 254 257 260 263 266 269 270 271 273 274 274 275 279 282 281 281 281 281 278 273 268 267 265 263 260 260
282 272 268 269 270 271 272 273 274 276 277 278 281 286 294 301 307 312 310 296 279 265 257 252 251 251 253 256 256 255 254 255 256 253 251 249 250 262 275 276 265 248 236 233 232 232 233 236 240 245 248 245 243 246 248 247 247 248 251 253 255 259 263 266 267 268 270 271 273 276 277 279 280 282 285 287 285 283 279 273 269 267 265 264 263
354 315 282 270 265 265 267 268 270 272 271 271 273 277 284 294 302 308 313 312 301 285 270 258 256 255 254 254 255 258 255 253 259 260 258 256 249 246 250 258 265 265 263 256 244 240 243 247 247 250 253 251 249 250 250 250 251 252 255 256 258 262 266 268 269 270 271 272 273 275 276 277 277 280 289 292 288 286 283 277 273 272 272 270 268
30 19 354 307 277 265 264 266 268 271 272 273 273 274 279 285 292 295 296 299 296 289 281 272 269 266 260 255 252 255 255 253 256 257 258 259 254 248 245 247 252 256 260 262 259 259 264 263 258 256 256 255 255 255 254 254 254 254 255 257 259 262 266 268 270 271 273 272 273 274 274 273 273 277 284 288 285 284 284 279 275 276 277 274 270
35 29 23 13 351 299 273 267 268 272 275 278 278 279 282 283 288 290 288 287 284 279 276 271 267 264 260 258 255 255 256 254 254 254 255 257 255 254 251 250 252 252 252 253 255 257 259 261 260 260 260 259 258 259 259 258 256 255 255 255 257 260 263 266 268 270 272 272 272 273 273 272 272 275 280 281 279 278 280 277 273 275 277 278 277
35 32 28 24 22 18 0 315 291 288 286 291 294 291 292 291 289 290 289 287 284 280 277 274 271 267 263 259 257 256 256 255 256 257 257 258 258 258 258 258 258 259 258 255 256 256 256 258 259 260 259 258 258 259 259 260 259 258 256 256 257 259 262 263 264 266 268 270 271 272 273 273 273 273 275 276 277 276 275 272 269 270 273 279 283
31 30 27 25 24 28 30 23 5 346 332 328 332 335 335 329 319 308 300 294 289 285 282 279 276 273 270 268 265 263 261 261 261 262 263 264 265 264 264 265 265 264 265 265 265 265 263 262 263 263 259 257 256 256 256 258 260 260 259 259 259 259 260 261 261 262 263 265 267 269 271 273 273 272 272 273 274 275 275 272 269 268 270 276 281
2 8 13 16 18 23 32 36 29 18 11 7 8 8 7 3 355 344 330 316 305 298 291 285 282 279 276 274 273 270 268 268 267 267 267 266 267 267 267 267 266 265 265 266 267 269 268 266 267 267 262 259 259 259 259 258 258 259 260 260 261 260 259 258 259 260 261 262 264 265 267 268 269 269 270 271 272 274 273 272 271 269 269 273 276
319 332 343 352 1 10 21 31 32 30 25 19 18 17 14 9 2 355 346 336 328 319 310 302 295 292 287 281 278 276 273 272 270 269 269 268 268 268 268 269 269 267 265 264 265 269 270 270 271 270 265 261 261 261 262 259 258 260 260 260 260 261 260 259 260 261 261 262 263 263 264 265 266 266 267 268 270 271 271 270 269 268 268 270 273
297 306 318 327 335 346 1 16 19 21 25 24 22 18 12 4 357 350 343 337 334 330 324 319 312 307 302 296 290 285 281 278 275 273 271 270 270 269 270 272 273 275 274 271 269 270 272 272 272 271 266 262 259 259 260 260 259 261 262 261 261 262 262 262 263 263 263 262 261 261 262 262 263 264 264 265 267 268 269 269 268 268 268 270 271
275 286 297 306 313 321 332 349 359 4 11 17 21 18 12 5 356 346 337 331 328 326 324 321 316 311 307 304 300 296 292 288 284 282 279 276 275 274 274 274 274 277 279 279 278 277 276 275 274 274 270 266 263 262 261 260 260 260 260 261 261 263 265 266 266 266 266 265 263 260 259 260 261 262 262 263 264 265 266 267 267 268 270 271 272
269 271 278 286 295 302 309 318 325 331 339 350 0 4 5 3 357 348 339 331 324 320 316 312 308 305 301 298 296 295 293 291 287 285 284 283 282 280 279 280 279 279 280 280 280 280 279 277 276 275 273 270 268 267 265 263 263 262 260 259 260 262 265 267 267 267 267 267 266 263 260 259 260 261 261 262 262 263 264 264 264 265 268 270 271
271 270 269 273 279 285 291 297 301 305 310 316 324 331 337 342 339 336 334 332 329 323 316 309 304 299 296 293 290 288 287 285 283 280 278 277 277 277 277 279 281 283 283 281 279 278 278 278 278 277 274 271 270 270 269 268 267 266 265 264 263 263 264 266 268 268 267 266 266 265 264 263 263 262 262 262 262 262 263 263 263 264 265 266 267
271 272 271 270 271 275 278 283 288 291 295 299 303 307 312 318 321 321 321 323 323 322 319 315 309 303 298 293 290 288 286 284 281 279 277 275 274 273 272 274 277 281 284 285 282 280 280 280 281 281 278 274 271 271 271 270 271 271 271 271 270 269 268 267 269 269 268 267 267 267 266 266 265 265 264 263 262 262 263 263 264 264 264 264 264
269 270 271 271 269 270 270 273 278 282 286 290 293 296 299 303 306 309 311 312 313 314 313 312 310 307 302 297 292 288 285 283 281 280 279 278 278 278 277 278 279 280 282 284 285 284 284 284 283 283 281 277 273 272 271 271 272 273 273 274 274 273 272 270 269 269 270 270 268 268 268 267 266 265 266 267 265 264 264 264 264 264 263 263 262
267 268 270 270 269 267 267 268 271 275 279 283 287 290 293 295 297 299 301 303 306 308 308 307 306 305 304 301 297 291 286 282 279 277 277 277 277 278 279 280 281 282 282 283 284 284 285 284 284 282 281 279 276 273 272 272 272 272 272 273 273 274 273 272 270 268 269 271 270 268 267 267 266 265 266 267 268 267 266 266 266 265 264 263 261
263 266 268 268 267 266 266 265 266 270 276 280 283 286 290 292 294 294 296 298 300 302 303 302 302 302 301 301 299 296 292 287 282 277 275 275 275 275 276 277 279 280 281 281 282 283 285 286 285 283 281 280 277 275 274 273 272 272 272 271 272 273 273 273 273 271 271 272 271 269 268 267 266 266 266 267 268 268 268 268 268 268 266 265 262
260 262 265 266 266 266 265 262 262 266 272 277 279 281 285 289 290 291 293 295 297 298 298 298 299 300 299 299 298 298 296 293 289 283 279 275 274 273 273 274 275 277 278 278 279 280 282 284 285 285 283 281 278 276 275 274 273 272 272 271 270 270 271 271 272 273 274 274 273 271 270 269 268 267 267 267 267 268 269 269 270 270 268 266 263
256 257 260 262 264 265 264 263 262 264 267 270 275 279 282 285 287 288 289 292 293 294 294 294 295 297 298 298 298 297 296 296 294 291 286 281 277 275 273 273 273 273 275 276 276 276 277 279 281 283 283 283 282 280 277 274 273 272 271 271 270 270 270 270 271 272 273 275 275 274 272 270 269 269 268 268 269 269 269 269 270 271 269 266 263
257 255 255 257 260 262 265 265 263 264 265 267 272 275 278 282 286 287 287 290 291 291 291 291 292 294 295 296 297 296 295 293 294 293 291 287 282 280 277 275 274 273 273 274 274 274 274 274 275 277 279 281 282 283 282 280 277 274 271 271 271 271 271 271 271 272 272 273 275 275 274 272 270 269 269 269 269 269 269 269 269 269 269 267 264
261 256 256 259 258 257 261 264 265 267 268 269 271 273 276 281 285 287 288 290 291 290 289 288 290 292 292 292 294 295 293 290 290 290 290 288 285 282 281 279 278 277 275 275 275 275 275 275 275 276 278 278 280 281 282 282 282 280 276 273 271 271 271 272 272 272 273 273 272 272 272 272 271 270 270 269 268 269 269 269 268 267 267 266 264
266 261 261 263 259 253 254 259 264 267 270 271 271 272 275 280 284 287 289 290 290 290 288 286 287 289 289 288 290 292 291 288 286 286 287 287 285 283 282 281 279 279 279 278 278 278 278 278 279 280 281 282 283 282 280 279 280 280 280 278 276 274 272 272 273 272 272 271 270 270 270 271 271 271 270 269 269 268 268 267 267 267 266 264 263
269 269 268 266 260 255 255 259 261 262 265 269 270 270 272 278 283 287 288 288 289 289 287 285 285 286 286 284 284 288 290 287 284 283 282 281 282 282 281 281 280 280 280 279 280 280 280 281 282 283 284 286 287 286 284 281 278 277 278 279 279 278 276 274 273 272 272 272 270 270 270 270 270 270 269 268 268 267 266 265 266 266 265 263 261
267 268 269 267 261 258 259 262 262 260 258 261 265 266 268 274 282 286 287 286 286 286 285 284 284 286 286 283 281 285 290 288 285 284 282 280 280 279 279 279 279 279 279 279 280 280 281 282 282 283 285 287 287 287 286 285 283 279 277 277 278 278 277 276 275 273 272 273 272 271 270 270 269 269 268 266 266 266 265 263 262 261 262 262 260
266 263 265 267 265 261 260 262 263 261 257 257 260 262 266 275 282 285 286 284 282 283 284 285 285 287 288 285 283 286 289 287 284 284 284 283 282 281 279 278 277 277 278 278 279 280 281 282 283 284 285 285 286 286 286 286 285 283 281 279 278 278 277 277 277 275 274 275 275 273 269 267 267 267 267 266 265 264 264 262 259 258 258 260 259
269 265 263 266 266 265 263 260 260 260 259 259 262 265 270 277 282 284 282 280 281 284 284 284 285 288 289 288 287 288 287 286 285 285 285 284 283 282 281 280 279 278 277 277 278 279 280 281 282 283 283 283 283 284 284 284 284 284 283 282 281 280 278 277 278 278 277 276 276 275 272 269 267 267 267 266 265 264 264 263 260 256 256 256 257
268 267 265 265 265 266 265 260 258 259 258 259 262 265 270 276 279 278 276 277 282 284 283 284 287 290 290 290 288 286 284 284 285 286 286 286 285 283 282 282 281 280 279 279 280 282 282 282 282 282 281 281 280 280 281 281 281 281 281 282 282 280 279 279 279 278 277 275 274 275 275 273 268 265 266 266 265 265 265 263 259 256 255 255 255
265 266 266 266 265 264 262 257 257 258 258 259 262 266 270 274 273 272 274 278 281 282 283 287 290 289 289 288 286 285 284 285 285 285 286 286 285 283 282 282 281 280 280 280 281 283 283 283 283 282 282 282 281 279 279 278 277 278 278 279 279 279 278 278 278 277 276 274 273 272 272 272 268 265 265 265 265 266 265 262 258 256 255 255 254
263 264 264 264 264 264 261 255 253 254 255 257 260 263 267 269 268 270 275 279 280 281 284 288 289 288 287 287 286 286 285 285 285 285 286 285 284 282 281 280 280 280 280 280 281 282 281 280 279 280 281 282 281 281 281 279 278 277 276 277 277 278 278 278 277 276 274 273 272 270 269 269 268 266 264 263 264 265 264 261 258 255 254 254 254
264 262 261 262 263 263 261 255 252 253 254 255 257 260 262 262 265 271 276 280 282 284 286 288 288 288 288 287 286 285 285 285 285 286 286 286 284 283 281 280 280 279 279 280 280 279 278 278 278 278 279 279 279 279 279 278 277 276 276 277 277 276 276 277 277 276 275 273 272 270 268 267 266 265 264 262 261 262 262 260 257 254 253 254 254
267 262 259 259 258 258 256 253 251 253 255 256 257 258 257 259 267 275 279 282 285 286 287 287 288 288 288 288 288 287 285 285 285 286 286 284 284 284 284 283 282 281 281 280 279 278 278 278 279 279 280 280 279 277 275 273 272 272 273 274 274 274 274 275 275 274 274 273 271 270 269 267 265 264 263 260 260 260 259 256 255 253 253 253 253
Height
3154 3155 3155 3155 3156 3157 3158 3158 3158 3158 3159 3159 3159 3160 3160 3160 3160 3160 3160 3161 3161 3162 3163 3164 3165 3166 3168 3169 3169 3171 3172 3173 3173 3174 3175 3176 3177 3178 3179 3180 3181 3182 3183 3184 3185 3186 3186 3187 3188 3189 3190 3191 3191 3192 3192 3192 3193 3193 3193 3194 3194 3194 3193 3193 3192 3192 3191 3191 3191 3190 3190 3189 3188 3188 3187 3187 3186 3186 3185 3185 3184 3183 3182 3181 3180
3152 3153 3153 3153 3154 3156 3156 3157 3157 3157 3158 3158 3158 3159 3159 3160 3160 3159 3160 3160 3160 3161 3162 3163 3164 3165 3166 3167 3168 3170 3171 3172 3173 3173 3174 3175 3176 3176 3177 3178 3180 3181 3182 3182 3183 3184 3185 3186 3187 3187 3188 3189 3190 3190 3191 3191 3192 3192 3192 3192 3193 3193 3193 3192 3192 3191 3191 3190 3190 3190 3189 3189 3188 3188 3187 3187 3186 3186 3185 3185 3184 3184 3183 3182 3181
3151 3151 3151 3151 3153 3154 3155 3155 3155 3156 3157 3157 3158 3158 3158 3159 3159 3159 3159 3159 3160 3160 3161 3162 3163 3164 3165 3166 3167 3168 3170 3171 3171 3172 3173 3174 3175 3175 3176 3177 3178 3179 3180 3181 3182 3183 3184 3184 3185 3186 3187 3187 3188 3189 3189 3190 3190 3190 3191 3191 3191 3191 3192 3191 3191 3191 3190 3190 3190 3189 3189 3189 3188 3188 3187 3187 3186 3186 3185 3185 3185 3184 3183 3182 3181
3149 3149 3149 3150 3151 3152 3153 3154 3154 3155 3156 3157 3157 3157 3158 3158 3157 3157 3158 3158 3159 3159 3160 3161 3162 3163 3163 3164 3166 3167 3168 3169 3170 3171 3172 3172 3173 3174 3175 3175 3176 3177 3178 3179 3180 3181 3182 3183 3184 3184 3185 3186 3186 3187 3187 3188 3189 3189 3189 3189 3190 3190 3190 3190 3190 3190 3190 3189 3189 3189 3189 3188 3188 3187 3187 3186 3186 3186 3185 3185 3185 3184 3184 3183 3182
3148 3148 3148 3150 3150 3151 3152 3153 3153 3154 3155 3155 3155 3156 3157 3157 3157 3157 3157 3157 3157 3158 3159 3160 3161 3161 3161 3162 3163 3165 3165 3166 3168 3168 3169 3170 3171 3172 3173 3173 3174 3175 3176 3177 3178 3179 3180 3181 3182 3183 3183 3184 3184 3185 3186 3186 3187 3187 3188 3188 3188 3188 3189 3189 3189 3189 3189 3189 3189 3188 3188 3188 3187 3187 3186 3186 3186 3185 3185 3185 3184 3184 3184 3183 3182
3147 3147 3147 3149 3149 3149 3151 3152 3152 3152 3153 3153 3154 3155 3155 3155 3156 3156 3156 3156 3156 3156 3157 3158 3159 3160 3160 3160 3161 3162 3163 3164 3165 3166 3167 3167 3169 3170 3171 3172 3173 3173 3174 3175 3176 3177 3178 3179 3180 3181 3181 3182 3182 3183 3184 3184 3185 3185 3186 3186 3186 3187 3187 3188 3188 3188 3188 3188 3188 3188 3187 3187 3187 3186 3186 3185 3185 3185 3184 3184 3184 3184 3183 3183 3182
3145 3145 3146 3147 3148 3148 3150 3151 3150 3150 3151 3151 3152 3152 3153 3153 3153 3155 3156 3155 3155 3155 3155 3156 3157 3159 3159 3159 3159 3160 3161 3161 3162 3163 3164 3165 3166 3167 3168 3169 3171 3172 3172 3173 3174 3175 3176 3177 3178 3179 3179 3180 3180 3181 3182 3182 3183 3183 3184 3184 3185 3185 3186 3186 3187 3187 3187 3187 3187 3187 3187 3186 3186 3186 3185 3185 3184 3184 3184 3183 3183 3183 3183 3182 3182
3144 3144 3145 3146 3146 3147 3148 3148 3148 3148 3149 3148 3149 3150 3151 3151 3152 3153 3154 3155 3155 3154 3153 3154 3156 3157 3158 3158 3158 3158 3159 3159 3160 3161 3162 3163 3164 3164 3166 3167 3168 3169 3170 3171 3172 3172 3173 3175 3175 3176 3177 3178 3178 3179 3180 3180 3181 3181 3182 3182 3183 3183 3183 3184 3185 3185 3185 3185 3186 3186 3185 3185 3185 3185 3185 3184 3184 3183 3183 3182 3182 3182 3182 3181 3181
3142 3143 3143 3144 3145 3146 3146 3146 3146 3147 3147 3146 3147 3148 3149 3150 3150 3151 3152 3152 3153 3152 3152 3153 3154 3154 3155 3156 3156 3156 3156 3156 3157 3159 3160 3161 3161 3162 3163 3165 3166 3166 3167 3169 3170 3170 3171 3172 3173 3174 3175 3176 3176 3177 3178 3178 3178 3179 3179 3180 3180 3181 3181 3182 3183 3183 3184 3184 3184 3184 3184 3184 3184 3184 3184 3183 3183 3182 3182 3182 3181 3181 3181 3180 3180
3141 3141 3142 3142 3143 3145 3144 3143 3144 3145 3145 3145 3146 3147 3147 3148 3148 3148 3149 3149 3150 3150 3150 3151 3152 3152 3152 3152 3153 3154 3155 3155 3155 3156 3157 3158 3159 3160 3162 3163 3163 3164 3165 3166 3167 3168 3168 3169 3170 3171 3172 3173 3174 3175 3175 3176 3176 3177 3177 3178 3178 3178 3179 3180 3180 3181 3182 3182 3182 3182 3182 3182 3182 3182 3182 3182 3181 3181 3181 3180 3180 3180 3179 3179 3179
3139 3140 3140 3141 3142 3143 3143 3142 3142 3142 3143 3144 3144 3145 3145 3146 3146 3146 3147 3147 3148 3148 3149 3149 3149 3150 3150 3150 3150 3151 3153 3153 3154 3154 3155 3156 3158 3159 3160 3161 3161 3162 3162 3163 3164 3166 3166 3166 3167 3169 3170 3170 3171 3172 3173 3174 3174 3174 3175 3175 3176 3176 3176 3177 3178 3179 3179 3180 3180 3180 3180 3180 3180 3180 3180 3180 3180 3180 3179 3179 3179 3179 3178 3178 3178
3137 3138 3139 3139 3140 3141 3141 3141 3140 3140 3141 3142 3142 3144 3144 3144 3145 3145 3145 3145 3146 3146 3147 3147 3147 3147 3148 3147 3148 3148 3149 3151 3152 3153 3154 3154 3156 3157 3158 3159 3160 3160 3160 3161 3162 3163 3164 3164 3165 3166 3167 3168 3168 3169 3170 3171 3171 3172 3172 3173 3173 3174 3174 3175 3175 3176 3177 3177 3178 3178 3178 3178 3178 3178 3178 3178 3178 3178 3178 3177 3177 3177 3177 3177 3176
3135 3136 3137 3137 3138 3139 3139 3138 3138 3139 3139 3140 3141 3142 3142 3142 3143 3143 3144 3144 3145 3145 3145 3145 3145 3146 3145 3145 3145 3145 3146 3147 3149 3151 3152 3152 3153 3155 3155 3156 3157 3158 3158 3159 3160 3161 3162 3162 3163 3164 3165 3166 3166 3167 3168 3168 3169 3169 3169 3170 3170 3171 3172 3172 3173 3173 3174 3175 3175 3176 3176 3176 3176 3176 3176 3176 3176 3176 3175 3175 3175 3175 3175 3175 3175
3133 3134 3135 3135 3136 3137 3137 3136 3137 3137 3138 3139 3140 3140 3141 3141 3141 3142 3142 3143 3144 3143 3143 3143 3144 3144 3144 3144 3143 3143 3144 3145 3146 3148 3149 3149 3151 3152 3153 3154 3155 3156 3157 3157 3158 3158 3159 3160 3161 3162 3162 3163 3164 3164 3164 3165 3166 3166 3167 3167 3168 3168 3169 3169 3170 3170 3171 3172 3172 3173 3173 3173 3173 3174 3174 3174 3174 3173 3173 3173 3173 3173 3173 3173 3173
3131 3132 3133 3133 3134 3135 3135 3134 3135 3135 3136 3137 3138 3138 3139 3139 3139 3140 3141 3142 3142 3142 3141 3142 3142 3142 3142 3142 3141 3141 3142 3143 3144 3145 3146 3147 3149 3150 3151 3152 3153 3154 3154 3155 3156 3156 3157 3158 3159 3159 3160 3161 3161 3162 3162 3162 3162 3163 3164 3165 3165 3166 3166 3167 3167 3167 3168 3168 3169 3170 3170 3170 3171 3171 3171 3171 3171 3171 3171 3171 3171 3171 3171 3171 3171
3130 3130 3131 3131 3132 3133 3133 3133 3133 3134 3134 3134 3135 3136 3137 3137 3137 3138 3139 3140 3140 3140 3140 3141 3141 3141 3141 3142 3141 3142 3142 3142 3143 3143 3143 3145 3146 3147 3148 3149 3150 3151 3152 3153 3153 3154 3155 3156 3157 3157 3158 3158 3159 3159 3159 3159 3159 3160 3161 3162 3162 3163 3164 3164 3164 3164 3165 3165 3165 3166 3167 3167 3167 3168 3168 3168 3168 3168 3168 3168 3168 3168 3168 3168 3169
3129 3129 3130 3130 3131 3131 3132 3132 3132 3132 3132 3132 3132 3133 3134 3135 3136 3136 3137 3138 3139 3139 3139 3139 3139 3139 3140 3141 3141 3141 3141 3141 3142 3142 3143 3143 3143 3143 3145 3146 3147 3147 3149 3150 3151 3152 3153 3153 3154 3155 3155 3156 3156 3156 3157 3157 3157 3158 3158 3159 3160 3160 3161 3161 3161 3162 3162 3162 3162 3162 3163 3164 3164 3165 3165 3165 3166 3166 3166 3165 3165 3165 3165 3166 3166
3128 3128 3129 3129 3130 3130 3130 3131 3131 3131 3131 3131 3131 3132 3133 3133 3134 3135 3135 3136 3136 3137 3137 3137 3137 3138 3139 3139 3139 3140 3140 3140 3141 3141 3141 3141 3141 3142 3142 3143 3143 3144 3146 3147 3148 3149 3150 3151 3152 3152 3153 3153 3154 3154 3155 3155 3156 3156 3155 3156 3157 3157 3158 3158 3159 3159 3159 3159 3159 3159 3159 3161 3161 3161 3162 3163 3163 3163 3163 3162 3162 3162 3163 3163 3163
3128 3128 3128 3129 3129 3129 3130 3130 3130 3130 3131 3131 3131 3131 3131 3132 3132 3133 3134 3134 3134 3135 3136 3136 3136 3136 3137 3138 3138 3138 3138 3139 3139 3139 3139 3139 3139 3140 3140 3140 3140 3142 3143 3144 3146 3146 3147 3149 3149 3149 3150 3150 3151 3151 3152 3153 3153 3153 3153 3153 3154 3154 3155 3155 3156 3156 3156 3157 3157 3157 3156 3156 3157 3158 3158 3159 3160 3160 3160 3160 3160 3160 3160 3160 3160
3128 3128 3128 3128 3128 3129 3129 3129 3129 3130 3130 3130 3130 3130 3130 3131 3131 3132 3132 3132 3133 3133 3134 3134 3134 3135 3136 3136 3137 3137 3136 3137 3137 3138 3138 3138 3137 3138 3138 3138 3138 3140 3141 3142 3143 3144 3145 3145 3146 3147 3147 3147 3147 3148 3149 3150 3150 3150 3151 3151 3152 3152 3152 3153 3153 3154 3154 3154 3155 3155 3154 3153 3154 3155 3155 3156 3156 3157 3157 3157 3157 3157 3157 3157 3157
3127 3127 3127 3128 3128 3128 3128 3129 3129 3129 3129 3129 3130 3129 3129 3130 3130 3130 3131 3131 3131 3131 3132 3133 3133 3134 3134 3135 3135 3135 3135 3135 3135 3136 3136 3137 3137 3136 3137 3137 3137 3138 3139 3140 3141 3141 3142 3142 3143 3144 3144 3144 3145 3145 3146 3147 3147 3148 3148 3149 3150 3150 3150 3150 3151 3151 3152 3151 3151 3152 3152 3151 3151 3151 3152 3152 3153 3153 3154 3154 3154 3154 3154 3155 3155
3126 3126 3126 3127 3127 3127 3128 3128 3128 3128 3128 3129 3129 3129 3129 3129 3129 3129 3129 3130 3130 3130 3131 3131 3132 3132 3132 3133 3133 3133 3133 3133 3133 3133 3134 3135 3136 3136 3136 3136 3135 3135 3136 3137 3137 3138 3139 3139 3140 3141 3141 3142 3143 3143 3143 3144 3144 3145 3146 3147 3147 3147 3147 3147 3148 3149 3149 3149 3149 3149 3150 3149 3149 3148 3149 3150 3150 3150 3150 3151 3151 3151 3152 3152 3152
3125 3125 3125 3126 3126 3126 3126 3127 3127 3127 3127 3128 3128 3128 3128 3128 3128 3128 3128 3128 3129 3129 3129 3130 3130 3130 3131 3131 3131 3131 3131 3131 3131 3131 3132 3133 3134 3135 3135 3135 3135 3135 3135 3134 3135 3135 3136 3136 3137 3138 3139 3139 3140 3140 3140 3141 3142 3142 3143 3144 3144 3144 3144 3145 3146 3146 3147 3147 3147 3147 3147 3147 3147 3147 3147 3147 3147 3147 3147 3148 3148 3149 3149 3150 3150
3124 3124 3125 3125 3125 3125 3125 3125 3126 3126 3126 3126 3127 3127 3127 3127 3127 3127 3127 3127 3127 3128 3128 3128 3128 3129 3129 3129 3129 3130 3130 3130 3130 3130 3130 3131 3131 3132 3133 3133 3133 3134 3134 3133 3133 3134 3134 3134 3135 3136 3137 3137 3137 3137 3138 3139 3139 3139 3141 3141 3141 3141 3142 3142 3143 3144 3144 3144 3144 3145 3145 3145 3145 3145 3145 3145 3145 3145 3144 3145 3145 3146 3146 3147 3147
3123 3124 3124 3124 3124 3125 3125 3125 3124 3124 3125 3125 3125 3125 3126 3126 3126 3126 3126 3126 3126 3126 3126 3127 3127 3127 3127 3128 3128 3128 3129 3129 3129 3129 3129 3129 3130 3130 3130 3131 3131 3132 3132 3132 3132 3132 3133 3133 3133 3134 3134 3134 3135 3135 3135 3136 3136 3136 3137 3137 3138 3139 3139 3140 3141 3141 3141 3141 3141 3142 3142 3143 3143 3142 3143 3143 3143 3142 3142 3142 3142 3143 3143 3144 3144
3123 3123 3123 3123 3123 3124 3124 3124 3124 3124 3124 3124 3124 3124 3124 3124 3124 3124 3124 3124 3124 3125 3125 3125 3125 3125 3126 3126 3126 3127 3127 3127 3127 3127 3127 3127 3128 3128 3128 3128 3129 3129 3129 3130 3130 3130 3131 3131 3131 3131 3131 3132 3132 3132 3132 3133 3132 3132 3133 3134 3135 3136 3136 3137 3138 3138 3138 3138 3138 3138 3139 3139 3140 3140 3140 3141 3140 3140 3140 3140 3140 3140 3141 3141 3141
3122 3122 3122 3122 3122 3123 3123 3123 3123 3123 3123 3123 3123 3123 3123 3123 3123 3123 3123 3123 3123 3123 3123 3123 3123 3123 3124 3124 3124 3125 3125 3125 3125 3125 3125 3125 3125 3125 3126 3126 3126 3127 3127 3127 3127 3127 3128 3128 3128 3128 3128 3128 3129 3129 3129 3129 3128 3128 3129 3131 3132 3132 3133 3133 3134 3135 3135 3136 3136 3136 3136 3136 3136 3137 3137 3138 3138 3138 3138 3138 3138 3138 3138 3139 3139
3122 3122 3122 3122 3122 3122 3122 3122 3122 3122 3122 3122 3122 3122 3122 3122 3122 3122 3121 3121 3121 3121 3121 3121 3121 3121 3121 3122 3122 3122 3122 3122 3122 3122 3122 3122 3122 3123 3123 3123 3124 3124 3124 3125 3125 3125 3125 3125 3126 3125 3125 3125 3126 3125 3125 3126 3125 3124 3127 3128 3128 3128 3128 3128 3130 3131 3132 3132 3133 3133 3133 3133 3133 3134 3134 3134 3135 3135 3136 3136 3136 3135 3136 3136 3137
3122 3121 3121 3121 3121 3122 3122 3122 3122 3121 3121 3121 3121 3121 3121 3121 3121 3121 3120 3120 3120 3120 3119 3119 3119 3119 3119 3119 3119 3119 3119 3120 3120 3120 3120 3120 3120 3120 3120 3121 3121 3121 3122 3122 3123 3123 3122 3122 3123 3122 3122 3123 3123 3122 3122 3123 3121 3122 3124 3125 3125 3124 3124 3124 3126 3127 3127 3128 3129 3129 3129 3129 3130 3130 3131 3131 3131 3132 3133 3133 3133 3133 3134 3134 3134
3121 3121 3121 3121 3121 3121 3121 3121 3121 3121 3121 3121 3121 3121 3121 3120 3120 3120 3119 3119 3119 3118 3118 3118 3118 3117 3117 3117 3117 3117 3117 3117 3117 3117 3117 3117 3118 3118 3118 3118 3119 3119 3119 3119 3120 3120 3120 3120 3120 3119 3120 3120 3120 3120 3120 3119 3119 3120 3121 3121 3121 3121 3120 3121 3122 3122 3123 3123 3124 3125 3125 3125 3126 3126 3127 3127 3128 3128 3129 3130 3130 3130 3131 3132 3132
3120 3120 3120 3120 3120 3120 3120 3120 3120 3120 3119 3119 3120 3120 3120 3120 3119 3119 3119 3118 3118 3117 3117 3117 3116 3116 3116 3116 3115 3115 3115 3115 3115 3115 3115 3115 3115 3116 3116 3117 3117 3117 3117 3117 3117 3118 3118 3117 3117 3117 3117 3117 3117 3117 3117 3116 3116 3118 3119 3118 3118 3117 3117 3118 3118 3118 3118 3118 3119 3119 3120 3121 3121 3122 3122 3123 3124 3124 3125 3126 3127 3128 3128 3129 3129
3120 3119 3119 3119 3119 3119 3119 3119 3119 3119 3118 3118 3118 3118 3118 3118 3118 3118 3118 3117 3117 3117 3116 3116 3115 3115 3114 3114 3114 3114 3113 3113 3113 3113 3113 3113 3113 3114 3114 3114 3115 3116 3116 3115 3114 3115 3115 3115 3115 3115 3114 3114 3114 3114 3114 3113 3113 3114 3115 3115 3114 3114 3114 3114 3114 3114 3114 3114 3114 3114 3115 3116 3116 3117 3117 3118 3119 3120 3121 3121 3123 3124 3125 3125 3125
3118 3118 3118 3118 3118 3118 3118 3118 3118 3118 3117 3117 3117 3117 3117 3117 3117 3117 3116 3116 3116 3116 3115 3115 3114 3113 3113 3112 3112 3112 3112 3111 3111 3111 3111 3111 3111 3112 3112 3112 3112 3113 3113 3113 3113 3112 3113 3113 3112 3113 3112 3112 3112 3111 3111 3110 3110 3111 3111 3111 3111 3111 3111 3110 3110 3110 3110 3109 3110 3110 3111 3111 3112 3112 3112 3113 3114 3115 3116 3117 3118 3119 3120 3121 3121
3116 3116 3116 3116 3116 3116 3116 3116 3116 3116 3116 3116 3116 3116 3116 3115 3115 3115 3115 3115 3115 3114 3113 3113 3112 3112 3111 3110 3110 3109 3109 3109 3109 3109 3109 3109 3109 3109 3109 3110 3110 3110 3111 3111 3110 3110 3110 3110 3110 3110 3110 3110 3110 3109 3108 3108 3108 3108 3108 3107 3107 3107 3107 3107 3106 3106 3105 3106 3106 3106 3107 3108 3108 3108 3108 3108 3109 3110 3111 3112 3112 3114 3115 3116 3116
3114 3113 3113 3113 3114 3114 3114 3114 3115 3115 3115 3115 3115 3115 3115 3114 3114 3113 3113 3113 3113 3113 3112 3111 3111 3110 3110 3109 3108 3108 3107 3107 3107 3106 3106 3106 3106 3106 3106 3106 3107 3107 3108 3108 3108 3107 3107 3108 3108 3107 3107 3107 3107 3106 3105 3105 3105 3105 3105 3104 3103 3103 3103 3103 3103 3102 3101 3102 3103 3103 3103 3104 3104 3104 3104 3104 3105 3106 3106 3107 3107 3108 3109 3110 3111
3111 3111 3110 3110 3111 3111 3111 3112 3112 3113 3113 3113 3113 3113 3113 3113 3112 3112 3111 3111 3111 3110 3110 3110 3109 3109 3108 3107 3107 3106 3105 3105 3104 3104 3103 3103 3103 3103 3103 3103 3103 3103 3104 3105 3105 3104 3104 3104 3105 3105 3104 3104 3104 3103 3103 3102 3102 3102 3101 3101 3100 3100 3100 3099 3100 3099 3097 3098 3099 3099 3099 3099 3099 3100 3100 3100 3100 3101 3102 3102 3102 3103 3103 3104 3105
3108 3108 3107 3106 3107 3107 3108 3109 3109 3110 3111 3111 3111 3111 3111 3110 3110 3110 3109 3109 3108 3108 3107 3107 3107 3106 3106 3105 3105 3104 3103 3102 3102 3101 3101 3100 3100 3100 3099 3099 3099 3099 3100 3101 3101 3100 3100 3099 3100 3100 3100 3100 3100 3100 3100 3099 3099 3098 3098 3097 3097 3096 3096 3096 3095 3095 3094 3094 3095 3095 3095 3095 3095 3095 3096 3096 3096 3097 3097 3097 3097 3098 3098 3099 3100
3105 3105 3104 3103 3103 3103 3104 3105 3106 3107 3108 3109 3108 3108 3108 3108 3108 3107 3107 3106 3106 3105 3104 3104 3104 3103 3103 3103 3102 3101 3100 3100 3099 3098 3098 3097 3097 3096 3096 3095 3095 3095 3096 3096 3097 3097 3096 3095 3095 3095 3095 3096 3096 3096 3096 3096 3095 3095 3094 3094 3093 3093 3093 3092 3092 3091 3091 3091 3091 3091 3091 3091 3091 3091 3091 3092 3092 3093 3093 3093 3093 3093 3094 3095 3095
3101 3101 3101 3100 3099 3099 3100 3101 3102 3104 3104 3105 3105 3105 3104 3104 3104 3104 3104 3103 3103 3102 3102 3101 3100 3100 3099 3099 3098 3098 3097 3096 3096 3095 3094 3094 3093 3093 3092 3091 3091 3091 3091 3092 3093 3093 3093 3092 3091 3090 3090 3091 3091 3091 3092 3091 3091 3091 3090 3090 3089 3089 3089 3089 3088 3088 3087 3087 3086 3086 3087 3087 3086 3087 3087 3087 3087 3088 3089 3089 3089 3089 3090 3090 3091
3098 3098 3097 3095 3095 3096 3096 3097 3099 3099 3100 3100 3101 3101 3101 3101 3101 3101 3101 3100 3099 3099 3098 3097 3097 3096 3096 3095 3095 3094 3094 3093 3092 3091 3090 3089 3089 3088 3088 3087 3087 3087 3087 3087 3087 3088 3088 3088 3088 3087 3087 3086 3086 3086 3086 3086 3085 3086 3086 3085 3085 3085 3085 3084 3084 3084 3084 3083 3082 3082 3081 3082 3082 3082 3082 3083 3082 3083 3083 3084 3085 3085 3086 3086 3087
3094 3094 3092 3091 3091 3092 3092 3092 3094 3095 3095 3096 3096 3097 3097 3097 3097 3097 3097 3096 3095 3094 3094 3093 3093 3093 3092 3092 3091 3091 3090 3089 3088 3087 3086 3085 3084 3084 3083 3082 3082 3081 3082 3082 3082 3082 3082 3082 3083 3083 3082 3082 3082 3083 3082 3081 3079 3079 3080 3080 3080 3080 3080 3079 3079 3080 3080 3079 3078 3077 3077 3077 3077 3078 3078 3078 3078 3078 3078 3079 3080 3081 3081 3082 3082
3090 3089 3088 3086 3086 3086 3087 3089 3090 3090 3091 3091 3092 3093 3093 3093 3093 3093 3092 3092 3091 3090 3089 3089 3088 3088 3087 3087 3087 3087 3086 3085 3084 3083 3082 3081 3080 3079 3078 3078 3077 3076 3076 3076 3076 3076 3076 3076 3076 3076 3075 3075 3076 3077 3077 3077 3075 3074 3073 3074 3074 3074 3075 3074 3074 3074 3074 3074 3073 3073 3073 3073 3073 3073 3074 3074 3073 3073 3074 3073 3075 3076 3077 3077 3077
3084 3084 3084 3084 3083 3082 3084 3086 3086 3085 3086 3087 3087 3088 3089 3089 3089 3088 3088 3087 3086 3085 3084 3084 3083 3082 3082 3081 3081 3082 3081 3080 3079 3078 3077 3076 3075 3075 3074 3073 3072 3072 3071 3071 3071 3071 3070 3070 3070 3070 3069 3069 3069 3069 3070 3070 3071 3069 3068 3067 3067 3068 3068 3068 3068 3068 3068 3068 3068 3068 3068 3068 3068 3068 3069 3069 3068 3068 3068 3069 3070 3071 3072 3072 3073
3079 3079 3079 3080 3079 3079 3080 3081 3080 3080 3081 3082 3082 3083 3084 3084 3084 3084 3083 3082 3081 3080 3080 3079 3078 3077 3076 3076 3076 3076 3076 3075 3074 3073 3071 3070 3070 3070 3069 3069 3068 3067 3067 3066 3065 3065 3065 3064 3064 3064 3064 3063 3063 3062 3062 3062 3063 3064 3063 3062 3061 3061 3061 3061 3061 3062 3062 3061 3062 3063 3063 3063 3063 3062 3063 3064 3063 3062 3063 3064 3065 3065 3066 3067 3068
3074 3074 3074 3075 3075 3075 3076 3076 3075 3075 3077 3077 3078 3079 3080 3079 3079 3079 3079 3078 3077 3076 3075 3074 3073 3071 3071 3070 3070 3070 3070 3069 3069 3068 3067 3065 3064 3063 3063 3063 3063 3062 3062 3061 3060 3060 3059 3058 3058 3058 3058 3058 3056 3056 3055 3054 3055 3055 3056 3056 3056 3055 3055 3054 3054 3055 3055 3055 3055 3056 3057 3057 3057 3056 3056 3058 3057 3055 3056 3059 3060 3060 3060 3061 3062
3069 3069 3070 3070 3070 3070 3071 3071 3071 3071 3072 3073 3075 3075 3075 3075 3075 3074 3074 3073 3072 3071 3070 3069 3068 3067 3066 3066 3066 3065 3064 3063 3062 3062 3061 3060 3058 3057 3057 3056 3056 3056 3055 3055 3054 3054 3053 3053 3052 3052 3052 3051 3050 3050 3049 3048 3048 3047 3048 3048 3049 3049 3048 3048 3048 3048 3049 3049 3049 3049 3050 3051 3052 3051 3050 3051 3050 3048 3050 3055 3056 3055 3054 3054 3056
3064 3064 3065 3065 3066 3066 3066 3067 3067 3067 3068 3069 3070 3070 3069 3069 3069 3069 3069 3069 3068 3066 3065 3064 3063 3062 3061 3061 3061 3060 3059 3058 3057 3056 3056 3054 3052 3051 3051 3050 3050 3049 3048 3048 3047 3047 3046 3046 3045 3045 3045 3045 3044 3044 3044 3043 3042 3041 3041 3041 3042 3041 3041 3041 3042 3042 3043 3044 3043 3043 3042 3044 3046 3045 3045 3045 3043 3042 3045 3048 3049 3049 3049 3049 3050
3059 3060 3060 3061 3061 3061 3061 3061 3062 3063 3064 3064 3064 3064 3064 3064 3064 3065 3065 3064 3063 3062 3060 3059 3058 3057 3056 3056 3056 3055 3054 3053 3052 3051 3050 3049 3047 3046 3045 3044 3043 3043 3042 3041 3041 3041 3040 3039 3038 3037 3037 3037 3037 3037 3037 3037 3036 3035 3035 3034 3034 3034 3034 3034 3035 3035 3036 3037 3037 3037 3035 3037 3039 3039 3040 3040 3037 3037 3040 3041 3042 3044 3043 3043 3043
3055 3055 3055 3055 3056 3056 3057 3057 3057 3057 3058 3058 3058 3059 3059 3060 3060 3060 3060 3059 3058 3057 3056 3054 3053 3052 3051 3051 3051 3050 3048 3047 3046 3045 3045 3044 3042 3041 3039 3038 3037 3036 3035 3035 3035 3034 3033 3032 3031 3031 3030 3030 3029 3029 3029 3029 3029 3028 3027 3027 3027 3027 3027 3026 3026 3027 3028 3029 3030 3030 3029 3029 3031 3032 3034 3033 3031 3031 3033 3034 3036 3038 3037 3036 3038
3050 3050 3050 3051 3051 3052 3053 3053 3052 3052 3052 3053 3053 3054 3055 3056 3056 3056 3055 3054 3053 3052 3051 3050 3048 3047 3046 3045 3045 3044 3043 3042 3040 3040 3039 3038 3036 3034 3033 3032 3031 3030 3030 3029 3028 3027 3025 3024 3024 3024 3024 3024 3024 3023 3022 3022 3022 3021 3019 3019 3020 3020 3019 3018 3017 3018 3020 3021 3022 3022 3021 3023 3023 3024 3026 3026 3024 3024 3026 3028 3030 3031 3031 3031 3032
3045 3045 3046 3046 3047 3048 3048 3048 3048 3048 3048 3048 3049 3050 3051 3051 3052 3052 3051 3050 3049 3048 3046 3045 3043 3042 3041 3040 3039 3038 3036 3036 3035 3034 3033 3031 3029 3027 3026 3025 3024 3023 3023 3022 3021 3019 3018 3016 3016 3015 3016 3016 3016 3016 3015 3015 3015 3014 3013 3013 3012 3011 3011 3011 3010 3009 3010 3012 3013 3013 3013 3015 3016 3016 3018 3019 3017 3016 3018 3020 3023 3024 3025 3026 3027